This is the latest recevied weather packets stored in our database for station/object KN6CRX. If no packets are shown the sender has not sent any weather packets the latest 10 day(s).
| Time | Temp. | Humidity | Pressure | Rain* | Wind** | Luminosity | Snow |
|---|---|---|---|---|---|---|---|
| 1787664958 | 13.89° C | 83% | 1026.2 hPa | 0 mm | - | 41 W/m² | - |
| 1787664655 | 13.89° C | 84% | 1026.3 hPa | 0 mm | - | 36 W/m² | - |
| 1787664354 | 13.89° C | 84% | 1026.3 hPa | 0 mm | - | 31 W/m² | - |
| 1787664054 | 13.89° C | 85% | 1026.2 hPa | 0 mm | - | 28 W/m² | - |
| 1787663749 | 13.33° C | 85% | 1026.1 hPa | 0 mm | - | 25 W/m² | - |
| 1787663444 | 13.33° C | 86% | 1026.1 hPa | 0 mm | - | 19 W/m² | - |
| 1787663140 | 13.33° C | 86% | 1026.3 hPa | 0 mm | - | 17 W/m² | - |
| 1787662836 | 13.33° C | 86% | 1026.2 hPa | 0 mm | - | 13 W/m² | - |
| 1787662535 | 12.78° C | 87% | 1026 hPa | 0 mm | - | 9 W/m² | - |
| 1787662231 | 13.33° C | 87% | 1026 hPa | 0 mm | - | 5 W/m² | - |
| 1787661927 | 13.33° C | 86% | 1025.9 hPa | 0 mm | - | 3 W/m² | - |
| 1787661626 | 13.33° C | 86% | 1026 hPa | 0 mm | - | 1 W/m² | - |
| 1787661325 | 13.33° C | 86% | 1025.8 hPa | 0 mm | - | 1 W/m² | - |
| 1787661025 | 13.33° C | 86% | 1025.6 hPa | 0 mm | - | 0 W/m² | - |
| 1787660720 | 13.33° C | 86% | 1025.6 hPa | 0 mm | - | 0 W/m² | - |
| 1787660415 | 13.33° C | 86% | 1025.6 hPa | 0 mm | - | 0 W/m² | - |
| 1787660114 | 12.78° C | 88% | 1025.8 hPa | 0 mm | - | 0 W/m² | - |
| 1787659814 | 12.78° C | 89% | 1025.5 hPa | 0 mm | - | 0 W/m² | - |
| 1787659512 | 12.78° C | 88% | 1025.6 hPa | 0 mm | - | 0 W/m² | - |
| 1787659208 | 13.33° C | 87% | 1025.8 hPa | 0 mm | - | 0 W/m² | - |
| 1787658907 | 13.33° C | 87% | 1025.8 hPa | 0 mm | - | 0 W/m² | - |
| 1787658602 | 13.33° C | 87% | 1025.5 hPa | 0 mm | - | 0 W/m² | - |
| 1787658298 | 13.33° C | 87% | 1025.8 hPa | 0 mm | - | 0 W/m² | - |
| 1787657994 | 13.33° C | 86% | 1025.5 hPa | 0 mm | - | 0 W/m² | - |
| 1787657694 | 13.89° C | 87% | 1025.9 hPa | 0 mm | - | 0 W/m² | - |
* Rain latest hour (hover to see other rain measurements)
** Current wind speed in m/s (hover to see current wind gust speed)